Location: Le Castellard
(44.1862°N, 6.1301°E)
Time: 05:00:35
(UTC+00:00)

Cosmos 1626 - Pass Details

Date: 18 January 2020
Orbit: 492 x 495 km, 82.5° (Epoch: 24 February)

Event Time Altitude Azimuth Distance (km) Brightness Sun altitude
Exits shadow 05:20:34 23° 215° (SW) 1,102 3.6 -18.6°
Drops below altitude 10° 05:22:14 10° 199° (SSW) 1,689 4.7 -18.3°
Sets 05:24:25 0° 191° (S) 2,565 5.8 -17.9°
